| time (UTC) | temp C | wind direction | speed KPH | gust KPH | rain 1hr cm | rain 24hr cm | rain mn cm | humidity % | barometer mb |
| 20260506161511 | 7 | 67 | 4.8 | 17.7 | 0.00 | 0.00 | 0.00 | 43 | 1017.8 |
| 20260506160014 | 7 | 15 | 4.8 | 17.7 | 0.00 | 0.00 | 0.00 | 44 | 1017.8 |
| 20260506154523 | 7 | 330 | 1.6 | 22.5 | 0.00 | 0.00 | 0.00 | 44 | 1017.9 |
| 20260506153025 | 6 | 5 | 3.2 | 16.1 | 0.00 | 0.00 | 0.00 | 46 | 1017.9 |
| 20260506151509 | 6 | 43 | 4.8 | 12.9 | 0.00 | 0.00 | 0.00 | 47 | 1017.9 |
| 20260506150012 | 5 | 311 | 0.0 | 11.3 | 0.00 | 0.00 | 0.00 | 54 | 1018.0 |
| 20260506144519 | 5 | 352 | 3.2 | 8.0 | 0.00 | 0.00 | 0.00 | 51 | 1018.0 |
| 20260506143024 | 5 | 5 | 0.0 | 4.8 | 0.00 | 0.00 | 0.00 | 52 | 1018.1 |
| 20260506141526 | 5 | 5 | 1.6 | 6.4 | 0.00 | 0.00 | 0.00 | 54 | 1018.2 |
| 20260506140019 | 5 | 5 | 0.0 | 4.8 | 0.00 | 0.00 | 0.00 | 57 | 1018.3 |
| 20260506134543 | 5 | 5 | 0.0 | 6.4 | 0.00 | 0.00 | 0.00 | 53 | 1018.3 |
| 20260506133025 | 3 | 5 | 1.6 | 4.8 | 0.00 | 0.00 | 0.00 | 58 | 1018.1 |
| 20260506131527 | 3 | 44 | 1.6 | 6.4 | 0.00 | 0.00 | 0.00 | 58 | 1018.1 |
| 20260506130018 | 2 | 44 | 0.0 | 4.8 | 0.00 | 0.00 | 0.00 | 59 | 1017.9 |
| 20260506124521 | 2 | 44 | 1.6 | 4.8 | 0.00 | 0.00 | 0.00 | 59 | 1017.9 |
| 20260506123026 | 2 | 44 | 0.0 | 3.2 | 0.00 | 0.00 | 0.00 | 60 | 1017.6 |
| 20260506121527 | 1 | 44 | 0.0 | 3.2 | 0.00 | 0.00 | 0.00 | 61 | 1017.5 |
| 20260506120019 | 1 | 44 | 0.0 | 3.2 | 0.00 | 0.00 | 0.00 | 62 | 1017.2 |
| 20260506114533 | 1 | 44 | 1.6 | 4.8 | 0.00 | 0.00 | 0.00 | 63 | 1017.2 |
| 20260506113033 | 1 | 44 | 0.0 | 4.8 | 0.00 | 0.00 | 0.00 | 64 | 1017.1 |
| 20260506111511 | 1 | 44 | 0.0 | 1.6 | 0.00 | 0.00 | 0.00 | 65 | 1017.0 |
| 20260506110009 | 1 | 44 | 0.0 | 4.8 | 0.00 | 0.00 | 0.00 | 65 | 1017.0 |
| 20260506104503 | 1 | 44 | 0.0 | 3.2 | 0.00 | 0.00 | 0.00 | 66 | 1016.9 |
| 20260506103019 | 1 | 44 | 0.0 | 0.0 | 0.00 | 0.00 | 0.00 | 65 | 1016.8 |
| 20260506101511 | 1 | 44 | 0.0 | 0.0 | 0.00 | 0.00 | 0.00 | 65 | 1016.8 |
| 20260506100004 | 1 | 44 | 0.0 | 0.0 | 0.00 | 0.00 | 0.00 | 65 | 1016.8 |
| 20260506094504 | 1 | 44 | 0.0 | 4.8 | 0.00 | 0.00 | 0.00 | 64 | 1016.9 |
| 20260506093010 | 1 | 44 | 0.0 | 0.0 | 0.00 | 0.00 | 0.00 | 64 | 1016.8 |
| 20260506091516 | 1 | 44 | 0.0 | 3.2 | 0.00 | 0.00 | 0.00 | 63 | 1016.7 |
| 20260506090006 | 1 | 44 | 0.0 | 4.8 | 0.00 | 0.00 | 0.00 | 63 | 1016.6 |
| 20260506084507 | 1 | 44 | 0.0 | 0.0 | 0.00 | 0.00 | 0.00 | 62 | 1016.6 |
| 20260506083012 | 1 | 44 | 0.0 | 6.4 | 0.00 | 0.00 | 0.00 | 62 | 1016.4 |
| 20260506081523 | 1 | 44 | 0.0 | 6.4 | 0.00 | 0.00 | 0.00 | 62 | 1016.5 |
| 20260506073016 | 1 | 44 | 0.0 | 1.6 | 0.00 | 0.00 | 0.00 | 61 | 1016.5 |
| 20260506071521 | 1 | 44 | 0.0 | 6.4 | 0.00 | 0.00 | 0.00 | 60 | 1016.5 |
| 20260506061532 | 1 | 44 | 0.0 | 0.0 | 0.00 | 0.00 | 0.00 | 61 | 1016.5 |
| 20260506044517 | 1 | 44 | 0.0 | 6.4 | 0.00 | 0.00 | 0.00 | 61 | 1016.1 |
| 20260506043018 | 1 | 44 | 0.0 | 4.8 | 0.00 | 0.00 | 0.00 | 60 | 1016.1 |
| 20260506041527 | 1 | 44 | 0.0 | 3.2 | 0.00 | 0.00 | 0.00 | 59 | 1016.0 |
| 20260506040028 | 1 | 44 | 1.6 | 4.8 | 0.00 | 0.00 | 0.00 | 58 | 1016.1 |
| 20260506034526 | 1 | 44 | 1.6 | 4.8 | 0.00 | 0.00 | 0.00 | 59 | 1015.8 |
| 20260506033019 | 2 | 44 | 0.0 | 3.2 | 0.00 | 0.00 | 0.00 | 57 | 1015.7 |
| 20260506031528 | 2 | 44 | 0.0 | 4.8 | 0.00 | 0.00 | 0.00 | 55 | 1015.6 |
| 20260506030026 | 3 | 44 | 0.0 | 4.8 | 0.00 | 0.00 | 0.00 | 53 | 1015.3 |
| 20260506024537 | 3 | 44 | 3.2 | 9.7 | 0.00 | 0.00 | 0.00 | 51 | 1015.0 |
| 20260506023020 | 4 | 44 | 3.2 | 12.9 | 0.00 | 0.00 | 0.00 | 50 | 1014.8 |
| 20260506021506 | 5 | 40 | 6.4 | 14.5 | 0.00 | 0.00 | 0.00 | 49 | 1014.6 |
| 20260506020010 | 5 | 33 | 3.2 | 14.5 | 0.00 | 0.00 | 0.00 | 47 | 1014.4 |
| 20260506014516 | 6 | 44 | 6.4 | 17.7 | 0.00 | 0.00 | 0.00 | 45 | 1014.2 |
| 20260506013027 | 6 | 45 | 4.8 | 14.5 | 0.00 | 0.00 | 0.00 | 44 | 1014.0 |
| 20260506011503 | 6 | 32 | 8.0 | 17.7 | 0.00 | 0.00 | 0.00 | 43 | 1014.1 |
| 20260506010010 | 6 | 39 | 6.4 | 16.1 | 0.00 | 0.00 | 0.00 | 43 | 1013.9 |
| 20260506004516 | 7 | 24 | 8.0 | 17.7 | 0.00 | 0.00 | 0.00 | 42 | 1013.8 |
| 20260506003022 | 7 | 52 | 9.7 | 22.5 | 0.00 | 0.00 | 0.00 | 42 | 1013.8 |
| 20260506001508 | 7 | 57 | 6.4 | 19.3 | 0.00 | 0.00 | 0.00 | 40 | 1013.7 |
| 20260506000011 | 7 | 36 | 9.7 | 22.5 | 0.00 | 0.00 | 0.00 | 40 | 1013.5 |
| 20260505234536 | 7 | 24 | 9.7 | 20.9 | 0.00 | 0.00 | 0.00 | 38 | 1013.5 |
| 20260505233021 | 8 | 339 | 9.7 | 24.1 | 0.00 | 0.00 | 0.00 | 38 | 1013.4 |
| 20260505231529 | 8 | 19 | 11.3 | 19.3 | 0.00 | 0.00 | 0.00 | 37 | 1013.3 |
| 20260505230023 | 8 | 355 | 3.2 | 20.9 | 0.00 | 0.00 | 0.00 | 38 | 1013.3 |
| 20260505224534 | 8 | 325 | 3.2 | 14.5 | 0.00 | 0.00 | 0.00 | 40 | 1013.3 |
| 20260505223026 | 8 | 26 | 4.8 | 17.7 | 0.00 | 0.00 | 0.00 | 38 | 1013.3 |
| 20260505221526 | 7 | 307 | 3.2 | 22.5 | 0.00 | 0.00 | 0.00 | 39 | 1013.5 |
| 20260505220016 | 7 | 10 | 4.8 | 22.5 | 0.00 | 0.00 | 0.00 | 38 | 1013.4 |
| 20260505214522 | 7 | 54 | 12.9 | 20.9 | 0.00 | 0.00 | 0.00 | 38 | 1013.4 |
| 20260505213027 | 7 | 14 | 1.6 | 17.7 | 0.00 | 0.00 | 0.00 | 38 | 1013.6 |
| 20260505211529 | 7 | 5 | 3.2 | 20.9 | 0.00 | 0.00 | 0.00 | 38 | 1013.6 |
| 20260505210016 | 7 | 17 | 3.2 | 19.3 | 0.00 | 0.00 | 0.00 | 38 | 1013.5 |
| 20260505204523 | 7 | 345 | 1.6 | 19.3 | 0.00 | 0.00 | 0.00 | 38 | 1013.7 |
| 20260505203026 | 7 | 5 | 11.3 | 20.9 | 0.00 | 0.00 | 0.00 | 38 | 1013.7 |
| 20260505201531 | 8 | 22 | 8.0 | 17.7 | 0.00 | 0.00 | 0.00 | 38 | 1013.5 |
| 20260505200018 | 7 | 11 | 3.2 | 24.1 | 0.00 | 0.00 | 0.00 | 39 | 1013.4 |
| 20260505194526 | 7 | 300 | 3.2 | 24.1 | 0.00 | 0.00 | 0.00 | 40 | 1013.4 |
| 20260505193027 | 7 | 360 | 4.8 | 19.3 | 0.00 | 0.00 | 0.00 | 40 | 1013.4 |
| 20260505191527 | 7 | 29 | 4.8 | 14.5 | 0.00 | 0.00 | 0.00 | 40 | 1013.4 |
| 20260505190016 | 7 | 11 | 3.2 | 16.1 | 0.00 | 0.00 | 0.00 | 41 | 1013.4 |
| 20260505184531 | 6 | 349 | 1.6 | 16.1 | 0.00 | 0.00 | 0.00 | 43 | 1013.5 |
| 20260505183025 | 7 | 5 | 8.0 | 16.1 | 0.00 | 0.00 | 0.00 | 40 | 1013.4 |
| 20260505181526 | 7 | 43 | 4.8 | 16.1 | 0.00 | 0.00 | 0.00 | 40 | 1013.5 |
| 20260505180040 | 7 | 30 | 6.4 | 24.1 | 0.00 | 0.00 | 0.00 | 40 | 1013.4 |
| 20260505174529 | 7 | 355 | 12.9 | 25.7 | 0.00 | 0.00 | 0.00 | 39 | 1013.2 |
| 20260505173028 | 7 | 5 | 14.5 | 24.1 | 0.00 | 0.00 | 0.00 | 38 | 1013.1 |
| 20260505171513 | 7 | 51 | 12.9 | 30.6 | 0.00 | 0.00 | 0.00 | 39 | 1013.2 |
| 20260505170023 | 7 | 12 | 6.4 | 25.7 | 0.00 | 0.00 | 0.00 | 39 | 1013.1 |
| 20260505164524 | 7 | 11 | 4.8 | 24.1 | 0.00 | 0.00 | 0.00 | 40 | 1013.0 |
| 20260505163016 | 7 | 342 | 9.7 | 25.7 | 0.00 | 0.00 | 0.00 | 41 | 1012.7 |